Skip Page Navigation
NASA JPL Caltech
NASA Logo - Jet Propulsion Laboratory + View the NASA Portal
+ Center for Near-Earth Object Studies
JPL Home Earth Solar System Stars & Galaxies Technology
JPL Solar System Dynamics
BODIES ORBITS EPHEMERIDES TOOLS PHYSICAL DATA DISCOVERY FAQ SITE MAP
JPL Small-Body Database Browser
Search: [ help ]  
136010 (2002 VJ63)
Classification: Main-belt Asteroid          SPK-ID: 2136010
Ephemeris | Orbit Diagram | Orbital Elements | Mission Design | Physical Parameters | Discovery Circumstances | Close-Approach Data ]

[ show orbit diagram ]
Orbital Elements at Epoch 2459000.5 (2020-May-31.0) TDB
Reference: JPL 24 (heliocentric ecliptic J2000)
 Element Value Uncertainty (1-sigma)   Units 
e .1438426020629313 5.7579e-08  
a 2.577709621638284 1.4363e-08 au
q 2.206925162299179 1.5317e-07 au
i 5.244445305676284 5.4559e-06 deg
node 351.598759854465 3.8495e-05 deg
peri 340.5047190585462 4.1302e-05 deg
M 153.3739313216838 1.3619e-05 deg
tp 2458356.481319605967
(2018-Aug-25.98131961)
5.6669e-05 TDB
period 1511.643621206921
4.14
1.2635e-05
3.459e-08
d
yr
n .2381513704351625 1.9905e-09 deg/d
Q 2.948494080977389 1.6429e-08 au
  Orbit Determination Parameters
   # obs. used (total)      808  
   data-arc span      8709 days (23.84 yr)  
   first obs. used      1996-03-20  
   last obs. used      2020-01-23  
   planetary ephem.      DE431  
   SB-pert. ephem.      SB431-N16  
   condition code      0  
   norm. resid. RMS      .53296  
   source      ORB  
   producer      Otto Matic  
   solution date      2020-Feb-24 07:38:23  

Additional Information
 Earth MOID = 1.19746 au 
 Jupiter MOID = 2.40547 au 
 T_jup = 3.406 
[ show covariance matrix ]

Ephemeris | Orbit Diagram | Orbital Elements | Mission Design | Physical Parameters | Discovery Circumstances | Close-Approach Data ]

Physical Parameter Table
Parameter Symbol Value Units Sigma Reference Notes
absolute magnitude H 15.6   n/a MPO493777  
diameter diameter 2.007 km 0.511 urn:nasa:pds:neowise_diameters_albedos::2.0[mainbelt] (http://adsabs.harvard.edu/abs/2011ApJ...741...68M)  
geometric albedo albedo 0.333   0.268 urn:nasa:pds:neowise_diameters_albedos::2.0[mainbelt] (http://adsabs.harvard.edu/abs/2011ApJ...741...68M)  

136010 (2002 VJ63)          Discovered 2002-Nov-06 by LONEOS at Anderson Mesa
Reference: 20060907/Numbers.arcLast Updated: 2006-09-10

[ show close-approach data ]
Alternate Designations
 2002 VJ63 = 2000 EP159 
Ephemeris | Orbit Diagram | Orbital Elements | Mission Design | Physical Parameters | Discovery Circumstances | Close-Approach Data ]
ABOUT SSD CREDITS/AWARDS PRIVACY/COPYRIGHT GLOSSARY LINKS
FirstGov 2020-Jul-09 20:04 UT
(server date/time)  
NASA Home Page
Site Manager:   Ryan S. Park
Webmaster  Alan B. Chamberlin